Home   Weather   Horw   Past weeks

Flag for Switzerland Past Weather in Horw, Lucerne, Switzerland — Yesterday and Last 2 Weeks

Now
21 °F

Cold.


Feels Like: 17 °F
Forecast: 14 / 34 °F
Wind: 3 mph from South

Location: Giswil

Current Time: Jan 21, 2017 at 3:25:15 am

Latest Report: Jan 21, 2017 at 2:00 am


Visibility: N/A

Pressure: 30.52 "Hg

Humidity: 99%

Dew Point: 21 °F

Location of HorwLocation

Past Weather in Horw — Graph

°F

Horw Temperature Yesterday

Maximum temperature yesterday: 24 °F (at 3:00 pm)
Minimum temperature yesterday: 22 °F (at 8:00 am)
Average temperature yesterday: 23 °F

High & Low Weather Summary for the Past Weeks

 TemperatureHumidityPressure
High45 °F (Jan 13, 1:00 am)100% (Jan 8, 8:00 am)30.75 "Hg (Jan 8, 8:00 am)
Low4 °F (Jan 7, 2:00 am)49% (Jan 11, 5:00 pm)29.50 "Hg (Jan 13, 1:00 am)
Average27 °F87%30.30 "Hg
* Reported Jan 6 2:00 am — Jan 21 2:00 am, Horw, Weather by CustomWeather, © 2017

Note: Actual official high and low records may vary slightly from our data, if they occured in-between our weather recording intervals... More about our weather records

Advertising

Horw Weather History for the Previous 24 Hours

Scroll right to see more
 ConditionsComfort  
Time TempWeatherWind HumidityBarometerVisibility
2:00 am
Sat, Jan 21
21 °FCold.3 mph99%30.52 "HgN/A
1:00 am22 °FCold.1 mph100%30.53 "HgN/A
12:00 am22 °FCold.5 mph99%30.53 "HgN/A
11:00 pm
Fri, Jan 20
22 °FCold.5 mph97%30.53 "HgN/A
10:00 pm22 °FCold.3 mph96%30.54 "HgN/A
9:00 pm23 °FCold.1 mph95%30.53 "HgN/A
8:00 pm23 °FCold.3 mph94%30.53 "HgN/A
7:00 pm23 °FCold.3 mph91%30.52 "HgN/A
6:00 pm24 °FCold.2 mph89%30.51 "HgN/A
5:00 pm24 °FCold.2 mph88%30.51 "HgN/A
4:00 pm24 °FCold.3 mph87%30.51 "HgN/A
3:00 pm24 °FCold.2 mph85%30.51 "HgN/A
2:00 pm24 °FCold.2 mph88%30.52 "HgN/A
1:00 pm23 °FCold.2 mph85%30.53 "HgN/A
12:00 pm23 °FCold.2 mph87%30.54 "HgN/A
11:00 am22 °FCold.3 mph87%30.56 "HgN/A
10:00 am22 °FCold.2 mph87%30.56 "HgN/A
9:00 am22 °FCold.2 mph86%30.54 "HgN/A
8:00 am22 °FCold.2 mph87%30.54 "HgN/A
7:00 am22 °FCold.1 mph85%30.54 "HgN/A
6:00 am22 °FCold.2 mph84%30.54 "HgN/A
5:00 am22 °FCold.1 mph83%30.54 "HgN/A
4:00 am22 °FCold.1 mph81%30.52 "HgN/A
3:00 am22 °FCold.2 mph83%30.53 "HgN/A
Weather by CustomWeather, © 2017

See weather overviewHow to use our weather pages